Regional Weather Roundup
Issued by NWS

Home | Current Version | Previous Version | Text Only | Print | Product List | Glossary On
Versions: 1 2 3 4 5 6 7 8 9 10 11 12 13 14 15 16 17 18 19 20 21 22 23 24 25 26 27 28 29 30 31 32 33 34 35 36 37 38 39 40 41 42 43 44 45 46 47 48 49 50
000
ASUS43 KMKX 231038
RWRWI

WISCONSIN REGIONAL WEATHER ROUNDUP
NATIONAL WEATHER SERVICE MILWAUKEE/SULLIVAN WI
600 AM CDT SAT MAY 23 2015

NOTE: "FAIR" INDICATES FEW OR NO CLOUDS BELOW 12,000 FEET WITH NO
SIGNIFICANT WEATHER AND/OR OBSTRUCTIONS TO VISIBILITY.

WIZ001-002-006>008-014>016-023>028-231200-
NORTHWEST WISCONSIN

CITY           SKY/WX    TMP DP  RH WIND       PRES   REMARKS
SUPERIOR ARPT  CLEAR     43  37  78 SW6       30.21R
ASHLAND        CLEAR     47  37  68 SW6       30.21R
HAYWARD        CLEAR     37  34  89 CALM      30.24R
SIREN          CLEAR     42  38  88 CALM      30.23S
CUMBERLAND     CLEAR     43  41  93 CALM      30.24S
RICE LAKE      CLEAR     41  40  95 CALM      30.26S
CHETEK         CLEAR     40  39  98 E3        30.25S
LADYSMITH      CLEAR     40  37  91 NE3       30.27S
EAU CLAIRE     CLEAR     42  39  89 CALM      30.24R FOG
MENOMONIE      CLEAR     46  43  91 CALM      30.24S
NEW RICHMOND   CLEAR     45  39  80 CALM      30.23S
OSCEOLA        CLEAR     43  43  99 CALM      30.25S
$$

WIZ003>005-009-010-017-018-231200-
NORTH CENTRAL WISCONSIN

CITY           SKY/WX    TMP DP  RH WIND       PRES   REMARKS
MANITOWISH WTR CLEAR     35  35 100 CALM      30.24R
ARBOR VITAE    CLEAR     39  35  84 CALM      30.25R
WOODRUFF       CLEAR     39  35  84 CALM      30.25R
RHINELANDER    CLEAR     38  33  82 CALM      30.26S
EAGLE RIVER    CLEAR     33  32  97 CALM      30.25R
LAND O LAKES   CLEAR     32  32 100 CALM      30.25R
PHILLIPS       CLEAR     36  35  95 CALM      30.25S
TOMAHAWK       CLEAR     32  31  97 CALM      30.27R
MEDFORD        CLEAR     41  36  81 CALM      30.26S
MERRILL        CLEAR     33  33  99 CALM      30.28R
$$

WIZ029-030-035-036-043>047-231200-
CENTRAL WISCONSIN

CITY           SKY/WX    TMP DP  RH WIND       PRES   REMARKS
WAUSAU         CLEAR     42  38  85 E5        30.26R
MOSINEE        CLEAR     41  39  93 SE3       30.28R
MARSHFIELD     CLEAR     46  38  73 CALM      30.27R
STEVENS POINT  CLEAR     40  35  83 CALM      30.28S
WAUPACA        CLEAR     43  36  75 CALM      30.29S
WAUTOMA        CLEAR     38  37  96 CALM      30.30R
WISC RAPIDS    CLEAR     47  34  60 S7        30.28S
CAMP DOUGLAS   CLEAR     38  38 100 NE1       30.26S
$$

WIZ011>013-019>022-031-037>040-048>050-231200-
NORTHEAST WISCONSIN

CITY           SKY/WX    TMP DP  RH WIND       PRES   REMARKS
ANTIGO         CLEAR     37  35  93 CALM      30.28R
SHAWANO        CLEAR     45  34  66 CALM      30.29R
OCONTO         CLEAR     33  33  99 CALM      30.27S
STURGEON BAY   CLEAR     45  27  49 S6        30.31R
GREEN BAY      CLEAR     40  34  79 CALM      30.29R
MANITOWOC      CLEAR     42  34  73 CALM      30.30R
APPLETON       CLEAR     43  30  61 CALM      30.29S
CLINTONVILLE   CLEAR     37  34  87 CALM      30.29R
OSHKOSH        CLEAR     47  30  51 S3        30.29R
$$

WIZ032>034-041-042-053>061-231200-
SOUTHWEST WISCONSIN

CITY           SKY/WX    TMP DP  RH WIND       PRES   REMARKS
LA CROSSE      CLEAR     49  43  80 SE8       30.25R
SPARTA         CLEAR     36  35  96 CALM      30.27S
VIROQUA        CLEAR     50  40  68 SE8       30.27R
BOSCOBEL       FAIR      45  43  93 SW3       30.28R
PRAIRIE DU CHI PTCLDY    52  43  71 E3        30.27R
PLATTEVILLE    PTCLDY    49  38  66 E6        30.28R
$$

WIZ056-057-062-063-064-067-068-231200-
SOUTH CENTRAL WISCONSIN

CITY           SKY/WX    TMP DP  RH WIND       PRES   REMARKS
REEDSBURG      CLEAR     48  37  65 CALM      30.28R
BARABOO/DELLS  CLEAR     51  31  46 S6        30.28R
LONE ROCK      CLEAR     47  38  71 E5        30.29R
MINERAL POINT  CLEAR     48  34  57 SE7       30.28S
MADISON        CLEAR     48  33  56 SE3       30.29R
MIDDLETON      CLEAR     53  28  39 S3        30.30R
WATERTOWN      CLEAR     39  33  78 CALM      30.30R
MONROE         PTCLDY    48  34  57 SE7       30.29R
JANESVILLE     CLEAR     43  32  65 CALM      30.30R
$$

WIZ051-052-058>065-066-070>072-231200-
SOUTHEAST WISCONSIN

CITY           SKY/WX    TMP DP  RH WIND       PRES   REMARKS
MILWAUKEE      PTCLDY    50  29  44 CALM      30.31R
WAUKESHA       FAIR      43  32  65 CALM      30.31S
MILWAUKEE/TIMM CLEAR     43  32  65 CALM      30.31S
RACINE         CLEAR     44  34  67 CALM      30.32R
BURLINGTON     CLEAR     38  35  89 CALM      30.31R
KENOSHA        CLEAR     43  33  68 CALM      30.30S
FOND DU LAC    CLEAR     47  29  49 SW7       30.29S
SHEBOYGAN      CLEAR     42  30  62 S6        30.30R
WEST BEND      CLEAR     43  34  70 CALM      30.30S
JUNEAU         CLEAR     44  30  59 CALM      30.31S
$$

LSZ147-162-231200-
LAKE SUPERIOR

STATION/POSITION TIME  TEMP    WIND        PRES    WAVE
                       AIR SEA DIR/SP/G            HT/PER
                 (UTC) (F)     (DEG/KT/KT) (MB)    (FT/S)
W MID LAKE BUOY  0950   40 36  240/ 12/ 12   N/A     1
DEVILS ISLAND    1000   48     230/ 18/ 19   N/A
PORT WING        0840   43      CALM  /  4   N/A
SAXON HARBOR     0900   50     200/  3/  7   N/A
$$

LMZ867-665-643>646-231200-
LAKE MICHIGAN

STATION/POSITION TIME  TEMP    WIND        PRES    WAVE
                       AIR SEA DIR/SP/G            HT/PER
                 (UTC) (F)     (DEG/KT/KT) (MB)    (FT/S)
CHAMBERS ISLAND  0940   48     190/  5/  9   N/A
N MID LAKE BUOY  0950   40 36  200/  8/ 10   N/A     0
NORTHPORT PIER   0900   47     180/  4/  9   N/A
SISTER BAY       0917   49     170/  5/  8   N/A
KEWAUNEE LAKESHO 1000   39      CALM  /  3   N/A
SHEBOYGAN LAKESH 1000   50     200/  5/  5   N/A
PORT WASHINGTON  0940   51     260/  5/  6   N/A
ATWATER BUOY     1000   49 45  160/  4/  6   N/A
MILWAUKEE LAKESH 1000   52     140/  3/  4   N/A
S MID LAKE BUOY  0950   42 38  220/  4/  6   N/A     0
KENOSHA   LAKESH 1000   49      CALM  /  1   N/A
$$

TC  - TEMPERATURE IN CELSIUS
VSB - VISIBILITY IN STATUTE MILES
WCI - WIND CHILL INDEX
HX  - HEAT INDEX




USA.gov is the U.S. government's official web portal to all federal, state and local government web resources and services.